Regional Weather Roundup
Issued by NWS

Home | Current Version | Previous Version | Text Only | Print | Product List | Glossary On
Versions: 1 2 3 4 5 6 7 8 9 10 11 12 13 14 15 16 17 18 19 20 21 22 23 24 25 26 27 28 29 30 31 32 33 34 35 36 37 38 39 40 41 42 43 44 45 46 47 48 49 50
000
ASUS43 KDTX 020501
RWRMI
MICHIGAN HOURLY REGIONAL WEATHER ROUNDUP
NATIONAL WEATHER SERVICE DETROIT/PONTIAC MI
100 AM EDT MON MAY 02 2016

NOTE: "FAIR" INDICATES FEW OR NO CLOUDS BELOW 12,000 FEET WITH NO
SIGNIFICANT WEATHER AND/OR OBSTRUCTION TO VISIBILITY.

MIZ047>049-052>055-059>063-066>070-074>076-081>083-020600-
SOUTHEAST LOWER MICHIGAN

CITY           SKY/WX    TMP DP  RH WIND       PRES   REMARKS
ADRIAN         RAIN      47  45  93 E8        29.97R FOG
ALMA           CLOUDY    42  38  87 NE7       30.01S
ANN ARBOR      CLOUDY    46  43  89 N8        29.95F
BAD AXE        CLOUDY    43  39  86 NE7       30.03S
CARO           CLOUDY    43  40  89 NE6       29.99F
DETROIT CITY   CLOUDY    48  44  86 NE8       29.96F
DETROIT        LGT RAIN  48  45  89 N10       29.95F FOG
FLINT          CLOUDY    47  40  76 NE8       29.99F
GROSSE ILE     LGT RAIN  48  46  93 NE9       29.94S
HILLSDALE      LGT RAIN  46  46 100 E6        29.96R
HOWELL         LGT RAIN  45  41  88 CALM      29.99R

CITY           SKY/WX    TMP DP  RH WIND       PRES   REMARKS
JACKSON        LGT RAIN  44 N/A N/A E9        29.95F
LAMBERTVILLE   HVY RAIN  49  47  90 CALM      29.98R
LANSING        LGT RAIN  44  40  85 E5        30.02R
LAPEER         CLOUDY    44  41  91 NE5       29.98F
MASON          RAIN      44  40  88 NE10      29.99R
MONROE         RAIN      48  47  96 CALM      29.96R
MT. CLEMENS    CLOUDY    47  46  99 N12       29.95F
PONTIAC        CLOUDY    45  41  86 NE9       29.96F
PORT HOPE        N/A     42  38  85 NE10      30.02F
PORT HURON     CLOUDY    45  43  93 N6        29.99S
TRI CITIES     CLOUDY    45  39  79 NE13      30.01F
MIDLAND        CLOUDY    43  37  78 NE7       30.03S
TROY           CLOUDY    47  44  88 NE8       29.98S
SAGINAW HB     CLOUDY    43  39  87 N10       29.99F
$$
MIZ043>046-050>051-056>058-064>065-071>073-077>080-020600-
SOUTHWEST LOWER MICHIGAN

CITY           SKY/WX    TMP DP  RH WIND       PRES   REMARKS
BATTLE CREEK   HVY RAIN  45  42  89 N12       30.02R FOG
BENTON HARBOR  LGT RAIN  47  44  90 NE7       29.98F
BIG RAPIDS     MOCLDY    44  32  62 N5        30.03R
COLDWATER      LGT RAIN  47  47  99 N6        29.98R
FREMONT        CLOUDY    46  34  62 NE5       30.04R
HOLLAND        HVY RAIN  44  41  89 NE10      30.00F FOG
GRAND RAPIDS   LGT RAIN  45  40  82 NE3       30.06R
IONIA          LGT RAIN  43  39  88 CALM      30.03R
KALAMAZOO      LGT RAIN  46  42  86 NE9       29.99F FOG
LUDINGTON      CLEAR     46  40  79 CALM      30.06R
MARSHALL       RAIN      44  42  93 N5        29.98R
MOUNT PLEASANT CLOUDY    44  36  73 NE10      30.02F
MUSKEGON       CLOUDY    48  34  58 E7        30.06R
$$
MIZ016>042-020600-
NORTHERN LOWER MICHIGAN

CITY           SKY/WX    TMP DP  RH WIND       PRES   REMARKS
ALPENA         CLEAR     37  33  85 N3        30.07F
BEAVER ISLAND  CLEAR     42  35  74 NW3       30.08S
BELLAIRE       CLEAR     39  36  88 CALM      30.07F
CADILLAC       CLEAR     42  32  68 N5        30.04S
CHARLEVOIX     MOCLDY    44  34  67 CALM      30.10S
FRANKFORT      CLEAR     43  37  79 CALM      30.07S
GAYLORD        CLEAR     41  31  67 CALM      30.06F
GRAYLING       CLEAR     36  32  87 CALM      30.07S
HARBOR SPRINGS CLOUDY    46  34  62 E3        30.07F
HOUGHTON LAKE  CLEAR     40  31  70 NE6       30.05F
MANISTEE       CLEAR     48  34  57 N6        30.06F
OSCODA         PTCLDY    40  36  83 N6        30.05S
PELLSTON       PTCLDY    39  34  82 CALM      30.08F
ROGERS CITY    CLEAR     37  31  80 CALM      30.08F
TRAVERSE CITY  CLEAR     40  35  83 CALM      30.06S
$$
MIZ007>008-015-020600-
EASTERN UPPER MICHIGAN

CITY           SKY/WX    TMP DP  RH WIND       PRES   REMARKS
KINROSS          N/A     48  34  57 N3        30.07F
MACKINAC ISLAN CLOUDY    42  33  69 CALM      30.06F
NEWBERRY       CLOUDY    43  33  70 NW6       30.07F
S. S. MARIE    CLOUDY    53  32  44 NE3       30.07F
MUNISING         N/A     33  30  88 CALM      30.12F
$$
MIZ004>006-011>014-085-020600-
CENTRAL UPPER MICHIGAN

CITY           SKY/WX    TMP DP  RH WIND       PRES   REMARKS
MANISTIQUE     CLOUDY    39  34  80 N7        30.08F WCI  34
ESCANABA       PTCLDY    43  32  65 N6        30.11F
MENOMINEE      CLEAR     45  30  57 N3        30.10S
SAWYER-GWINN   CLEAR     34  29  83 N5        30.10F WCI  30
$$
MIZ001>003-009>011-084-020600-
WESTERN UPPER MICHIGAN

CITY           SKY/WX    TMP DP  RH WIND       PRES   REMARKS
IRON MOUNTAIN  CLEAR     38  28  67 N5        30.11F WCI  34
HOUGHTON       CLEAR     35  30  82 CALM      30.13S
COPPER HARBOR    N/A     36  33  89 SW6       30.13F WCI  31
IRONWOOD         N/A     34  34 100 NE3       30.11F
$$

ABBREVIATIONS USED IN REMARKS
   TC - TEMPERATURE IN CELSIUS
  WCI - WIND CHILL INDEX
   HX - HEAT INDEX
  VSB - VISIBILITY




USA.gov is the U.S. government's official web portal to all federal, state and local government web resources and services.